Stations météo

Publicité
Kasteli, Grèce (16760): Température de l'air & dewpoint: 15.01.2020 12:00:00 - 21.01.2020 12:00:00 (EET)Kasteli, Grèce (16760): Vitesse du vent: 15.01.2020 12:00:00 - 21.01.2020 12:00:00 (EET)Kasteli, Grèce (16760): Direction du vent: 15.01.2020 12:00:00 - 21.01.2020 12:00:00 (EET)Kasteli, Grèce (16760): reduced air pressure: 15.01.2020 12:00:00 - 21.01.2020 12:00:00 (EET)Kasteli, Grèce (16760): visibility: 15.01.2020 12:00:00 - 21.01.2020 12:00:00 (EET)
Date & Time tt [°C] td [°C] ff [km/h] ff [knt] dd ppp [hPa] vv [km]
21.01.2020 12:00:00 - - - - - - -
21.01.2020 11:00:00 7,0 3,4 16 9 NNE 1035,9 10
21.01.2020 10:00:00 - - - - - - -
21.01.2020 09:00:00 - - - - - - -
21.01.2020 08:00:00 6,4 1,9 29 16 NNE 1035,4 10
21.01.2020 07:00:00 - - - - - - -
21.01.2020 06:00:00 - - - - - - -
21.01.2020 05:00:00 7,4 2,7 31 17 N 1033,9 -
21.01.2020 04:00:00 - - - - - - -
21.01.2020 03:00:00 - - - - - - -
21.01.2020 02:00:00 7,4 4,2 29 16 NNE 1034,0 10
21.01.2020 01:00:00 - - - - - - -
21.01.2020 00:00:00 - - - - - - -
20.01.2020 23:00:00 7,0 6,1 29 16 NNE 1035,1 -
20.01.2020 22:00:00 - - - - - - -
20.01.2020 21:00:00 - - - - - - -
20.01.2020 20:00:00 7,6 4,3 28 15 NNE 1034,1 10
20.01.2020 19:00:00 - - - - - - -
20.01.2020 18:00:00 - - - - - - -
20.01.2020 17:00:00 7,2 5,3 21 11 NNE 1033,1 6
20.01.2020 16:00:00 - - - - - - -
20.01.2020 15:00:00 - - - - - - -
20.01.2020 14:00:00 7,4 5,4 24 13 NNE 1032,3 8
20.01.2020 13:00:00 - - - - - - -
20.01.2020 12:00:00 - - - - - - -
20.01.2020 11:00:00 9,0 3,6 24 13 NNE 1032,0 10
20.01.2020 10:00:00 - - - - - - -
20.01.2020 09:00:00 - - - - - - -
20.01.2020 08:00:00 8,0 5,8 22 12 NNE 1023,6 10
20.01.2020 07:00:00 - - - - - - -
20.01.2020 06:00:00 - - - - - - -
20.01.2020 05:00:00 7,0 5,7 18 10 N 1028,1 10
20.01.2020 04:00:00 - - - - - - -
20.01.2020 03:00:00 - - - - - - -
20.01.2020 02:00:00 7,9 4,6 18 10 N 1027,6 -
20.01.2020 01:00:00 - - - - - - -
20.01.2020 00:00:00 - - - - - - -
19.01.2020 23:00:00 7,5 5,6 13 7 NNE 1026,4 -
19.01.2020 22:00:00 - - - - - - -
19.01.2020 21:00:00 - - - - - - -
19.01.2020 20:00:00 7,0 4,7 0 0 N 1025,0 10
19.01.2020 19:00:00 - - - - - - -
19.01.2020 18:00:00 - - - - - - -
19.01.2020 17:00:00 8,4 7,1 9 5 N 1022,2 10
19.01.2020 16:00:00 - - - - - - -
19.01.2020 15:00:00 - - - - - - -
19.01.2020 14:00:00 9,0 6,9 5 3 N 1022,2 10
19.01.2020 13:00:00 - - - - - - -
19.01.2020 12:00:00 - - - - - - -
19.01.2020 11:00:00 8,0 5,8 13 7 N 1022,0 10
19.01.2020 10:00:00 - - - - - - -
19.01.2020 09:00:00 - - - - - - -
19.01.2020 08:00:00 8,4 4,3 13 7 NE 1021,1 10
19.01.2020 07:00:00 - - - - - - -
19.01.2020 06:00:00 - - - - - - -
19.01.2020 05:00:00 7,8 4,1 15 8 NE 1020,6 10
19.01.2020 04:00:00 - - - - - - -
19.01.2020 03:00:00 - - - - - - -
19.01.2020 02:00:00 8,0 5,4 11 6 NNE 1020,7 10
19.01.2020 01:00:00 - - - - - - -
19.01.2020 00:00:00 - - - - - - -
18.01.2020 23:00:00 8,0 6,8 21 11 N 1020,9 -
18.01.2020 22:00:00 - - - - - - -
18.01.2020 21:00:00 - - - - - - -
18.01.2020 20:00:00 8,8 7,3 18 10 NNE 1020,5 8
18.01.2020 19:00:00 - - - - - - -
18.01.2020 18:00:00 - - - - - - -
18.01.2020 17:00:00 8,2 7,7 11 6 N 1020,5 8
18.01.2020 16:00:00 - - - - - - -
18.01.2020 15:00:00 - - - - - - -
18.01.2020 14:00:00 8,6 8,0 15 8 N 1020,6 8
18.01.2020 13:00:00 - - - - - - -
18.01.2020 12:00:00 - - - - - - -
18.01.2020 11:00:00 8,8 8,0 9 5 N 1022,1 8
18.01.2020 10:00:00 - - - - - - -
18.01.2020 09:00:00 - - - - - - -
18.01.2020 08:00:00 7,0 4,7 9 5 N 1021,4 8
18.01.2020 07:00:00 - - - - - - -
18.01.2020 06:00:00 - - - - - - -
18.01.2020 05:00:00 8,0 7,4 4 2 NNE 1021,1 10
18.01.2020 04:00:00 - - - - - - -
18.01.2020 03:00:00 - - - - - - -
18.01.2020 02:00:00 8,0 5,8 11 6 N 1024,2 10
18.01.2020 01:00:00 - - - - - - -
18.01.2020 00:00:00 - - - - - - -
17.01.2020 23:00:00 9,0 5,4 16 9 N 1022,1 -
17.01.2020 22:00:00 - - - - - - -
17.01.2020 21:00:00 - - - - - - -
17.01.2020 20:00:00 9,0 4,8 9 5 N 1022,1 10
17.01.2020 19:00:00 - - - - - - -
17.01.2020 18:00:00 - - - - - - -
17.01.2020 17:00:00 9,0 6,4 15 8 N 1020,9 10
17.01.2020 16:00:00 - - - - - - -
17.01.2020 15:00:00 - - - - - - -
17.01.2020 14:00:00 8,8 6,3 16 9 N 1020,1 10
17.01.2020 13:00:00 - - - - - - -
17.01.2020 12:00:00 - - - - - - -
17.01.2020 11:00:00 9,2 6,3 22 12 N 1021,1 10
17.01.2020 10:00:00 - - - - - - -
17.01.2020 09:00:00 - - - - - - -
17.01.2020 08:00:00 9,6 6,5 18 10 NNE 1020,4 10
17.01.2020 07:00:00 - - - - - - -
17.01.2020 06:00:00 - - - - - - -
17.01.2020 05:00:00 9,8 7,0 21 11 NNE 1019,4 10
17.01.2020 04:00:00 - - - - - - -
17.01.2020 03:00:00 - - - - - - -
17.01.2020 02:00:00 10,0 8,3 11 6 N 1019,3 10
17.01.2020 01:00:00 - - - - - - -
17.01.2020 00:00:00 - - - - - - -
16.01.2020 23:00:00 9,9 8,3 13 7 N 1020,0 -
16.01.2020 22:00:00 - - - - - - -
16.01.2020 21:00:00 - - - - - - -
16.01.2020 20:00:00 8,8 8,0 11 6 NE 1020,3 10
16.01.2020 19:00:00 - - - - - - -
16.01.2020 18:00:00 - - - - - - -
16.01.2020 17:00:00 10,4 8,8 15 8 NNE 1018,9 7
16.01.2020 16:00:00 - - - - - - -
16.01.2020 15:00:00 - - - - - - -
16.01.2020 14:00:00 10,8 9,9 11 6 N 1018,9 6
16.01.2020 13:00:00 - - - - - - -
16.01.2020 12:00:00 - - - - - - -
16.01.2020 11:00:00 10,6 10,3 11 6 NNE 1020,7 5
16.01.2020 10:00:00 - - - - - - -
16.01.2020 09:00:00 - - - - - - -
16.01.2020 08:00:00 10,0 9,5 15 8 NE 1020,5 6
16.01.2020 07:00:00 - - - - - - -
16.01.2020 06:00:00 - - - - - - -
16.01.2020 05:00:00 10,7 10,7 22 12 N 1019,9 -
16.01.2020 04:00:00 - - - - - - -
16.01.2020 03:00:00 - - - - - - -
16.01.2020 02:00:00 9,0 6,9 24 13 N 1021,6 10
16.01.2020 01:00:00 - - - - - - -
16.01.2020 00:00:00 - - - - - - -
15.01.2020 23:00:00 11,2 10,6 16 9 NNE 1022,2 -
15.01.2020 22:00:00 - - - - - - -
15.01.2020 21:00:00 - - - - - - -
15.01.2020 20:00:00 10,6 10,0 5 3 NNE 1023,1 10
15.01.2020 19:00:00 - - - - - - -
15.01.2020 18:00:00 - - - - - - -
15.01.2020 17:00:00 12,0 9,6 11 6 N 1023,0 10
15.01.2020 16:00:00 - - - - - - -
15.01.2020 15:00:00 - - - - - - -
15.01.2020 14:00:00 12,0 10,1 16 9 NNE 1024,0 10
15.01.2020 13:00:00 - - - - - - -
15.01.2020 12:00:00 - - - - - - -

tt = Température de l'air
td = dewpoint
ff = Vitesse du vent
dd = Direction du vent
ppp = reduced air pressure
vv = visibility

stations d'obs. à proximité